• Em Portugal
  • Lista de países
  • Para 7 dias
  • Temperatura da água
  • Mapas de satélite
  • Mapa do tempo
  • Widgets de tempo
  • user-avatar
    Iniciar Sessão

    Previsão horária em Mariental

    Hoje, 22 Junho, Sexta-feira

    Tempo Temperatura Precipitação Vento Pressão Humidade
    00:00 +16°C° 0 mm 3 m/s 672 mmHg 19%
    01:00 +14°C° 0 mm 3 m/s 672 mmHg 21%
    02:00 +13°C° 0 mm 3 m/s 672 mmHg 23%
    03:00 +12°C° 0 mm 3 m/s 672 mmHg 26%
    04:00 +12°C° 0 mm 3 m/s 672 mmHg 29%
    05:00 +11°C° 0 mm 3 m/s 672 mmHg 31%
    06:00 +11°C° 0 mm 3 m/s 672 mmHg 33%
    07:00 +11°C° 0 mm 3 m/s 673 mmHg 34%
    08:00 +13°C° 0 mm 3 m/s 673 mmHg 30%
    09:00 +16°C° 0 mm 3 m/s 673 mmHg 26%
    10:00 +18°C° 0 mm 3 m/s 674 mmHg 23%
    11:00 +20°C° 0 mm 3 m/s 674 mmHg 20%
    12:00 +22°C° 0 mm 3 m/s 673 mmHg 18%
    13:00 +25°C° 0 mm 2 m/s 673 mmHg 16%
    14:00 +25°C° 0 mm 2 m/s 673 mmHg 15%
    15:00 +26°C° 0 mm 3 m/s 673 mmHg 15%
    16:00 +26°C° 0 mm 3 m/s 672 mmHg 15%
    17:00 +24°C° 0 mm 2 m/s 672 mmHg 18%
    18:00 +21°C° 0 mm 1 m/s 671 mmHg 21%
    19:00 +19°C° 0 mm 1 m/s 671 mmHg 24%
    20:00 +19°C° 0 mm 1 m/s 671 mmHg 24%
    21:00 +18°C° 0 mm 1 m/s 671 mmHg 25%
    22:00 +18°C° 0 mm 1 m/s 671 mmHg 25%
    23:00 +18°C° 0 mm 1 m/s 671 mmHg 25%

    Amanhã, 23 Junho, Sábado

    Tempo Temperatura Precipitação Vento Pressão Humidade
    00:00 +16°C° 0 mm 2 m/s 671 mmHg 25%
    01:00 +16°C° 0 mm 2 m/s 671 mmHg 25%
    02:00 +16°C° 0 mm 2 m/s 671 mmHg 26%
    03:00 +14°C° 0 mm 3 m/s 671 mmHg 26%
    04:00 +14°C° 0 mm 3 m/s 670 mmHg 26%
    05:00 +14°C° 0 mm 3 m/s 670 mmHg 27%
    06:00 +13°C° 0 mm 3 m/s 670 mmHg 28%
    07:00 +13°C° 0 mm 3 m/s 670 mmHg 29%
    08:00 +17°C° 0 mm 4 m/s 671 mmHg 25%
    09:00 +20°C° 0 mm 4 m/s 672 mmHg 22%
    10:00 +23°C° 0 mm 5 m/s 673 mmHg 19%
    11:00 +25°C° 0 mm 4 m/s 672 mmHg 18%
    12:00 +26°C° 0 mm 3 m/s 672 mmHg 16%
    13:00 +27°C° 0 mm 3 m/s 672 mmHg 15%
    14:00 +27°C° 0 mm 3 m/s 671 mmHg 15%
    15:00 +27°C° 0 mm 2 m/s 671 mmHg 14%
    16:00 +27°C° 0 mm 2 m/s 671 mmHg 14%
    17:00 +25°C° 0 mm 2 m/s 670 mmHg 17%
    18:00 +22°C° 0 mm 1 m/s 670 mmHg 19%
    19:00 +20°C° 0 mm 1 m/s 670 mmHg 22%
    20:00 +20°C° 0 mm 1 m/s 670 mmHg 22%
    21:00 +18°C° 0 mm 2 m/s 670 mmHg 22%
    22:00 +18°C° 0 mm 2 m/s 670 mmHg 22%
    23:00 +17°C° 0 mm 2 m/s 670 mmHg 23%

    Depois de amanhã, 24 Junho, Domingo

    Tempo Temperatura Precipitação Vento Pressão Humidade
    00:00 +17°C° 0 mm 2 m/s 670 mmHg 24%
    01:00 +16°C° 0 mm 2 m/s 670 mmHg 25%
    02:00 +15°C° 0 mm 2 m/s 670 mmHg 27%
    03:00 +14°C° 0 mm 2 m/s 669 mmHg 29%
    04:00 +14°C° 0 mm 2 m/s 669 mmHg 31%
    05:00 +13°C° 0 mm 2 m/s 669 mmHg 31%
    06:00 +13°C° 0 mm 2 m/s 670 mmHg 32%
    07:00 +13°C° 0 mm 2 m/s 670 mmHg 33%
    08:00 +15°C° 0 mm 1 m/s 671 mmHg 29%
    09:00 +19°C° 0 mm 1 m/s 672 mmHg 25%
    10:00 +21°C° 0 mm 1 m/s 673 mmHg 20%
    11:00 +23°C° 0 mm 2 m/s 672 mmHg 18%
    12:00 +24°C° 0 mm 2 m/s 672 mmHg 16%
    13:00 +26°C° 0 mm 3 m/s 671 mmHg 15%
    14:00 +26°C° 0 mm 3 m/s 671 mmHg 14%
    15:00 +26°C° 0 mm 3 m/s 671 mmHg 13%
    16:00 +26°C° 0 mm 2 m/s 670 mmHg 13%
    17:00 +24°C° 0 mm 2 m/s 670 mmHg 15%
    18:00 +21°C° 0 mm 2 m/s 670 mmHg 18%
    19:00 +20°C° 0 mm 1 m/s 669 mmHg 20%
    20:00 +19°C° 0 mm 2 m/s 670 mmHg 20%
    21:00 +18°C° 0 mm 3 m/s 670 mmHg 20%
    22:00 +18°C° 0 mm 4 m/s 670 mmHg 20%
    23:00 +17°C° 0 mm 4 m/s 670 mmHg 21%

    25 Junho, Segunda-feira

    Tempo Temperatura Precipitação Vento Pressão Humidade
    00:00 +17°C° 0 mm 4 m/s 670 mmHg 22%
    01:00 +15°C° 0 mm 4 m/s 670 mmHg 23%
    02:00 +14°C° 0 mm 4 m/s 669 mmHg 24%
    03:00 +14°C° 0 mm 4 m/s 669 mmHg 25%
    04:00 +13°C° 0 mm 3 m/s 669 mmHg 25%
    05:00 +13°C° 0 mm 4 m/s 669 mmHg 26%
    06:00 +13°C° 0 mm 4 m/s 669 mmHg 26%
    07:00 +13°C° 0 mm 4 m/s 669 mmHg 26%
    08:00 +16°C° 0 mm 6 m/s 670 mmHg 23%
    09:00 +20°C° 0 mm 7 m/s 671 mmHg 20%
    10:00 +23°C° 0 mm 8 m/s 671 mmHg 17%
    11:00 +24°C° 0 mm 7 m/s 671 mmHg 16%
    12:00 +26°C° 0 mm 7 m/s 670 mmHg 15%
    13:00 +27°C° 0 mm 6 m/s 670 mmHg 13%
    14:00 +27°C° 0 mm 5 m/s 670 mmHg 13%
    15:00 +27°C° 0 mm 5 m/s 669 mmHg 13%
    16:00 +27°C° 0 mm 4 m/s 669 mmHg 13%
    17:00 +25°C° 0 mm 4 m/s 669 mmHg 15%
    18:00 +22°C° 0 mm 3 m/s 669 mmHg 17%
    19:00 +21°C° 0 mm 3 m/s 668 mmHg 19%
    20:00 +20°C° 0 mm 3 m/s 669 mmHg 21%
    21:00 +19°C° 0 mm 3 m/s 669 mmHg 23%
    22:00 +18°C° 0 mm 3 m/s 669 mmHg 24%
    23:00 +17°C° 0 mm 3 m/s 668 mmHg 26%

    26 Junho, Terça-feira

    Tempo Temperatura Precipitação Vento Pressão Humidade
    00:00 +16°C° 0 mm 2 m/s 668 mmHg 28%
    01:00 +15°C° 0 mm 2 m/s 668 mmHg 30%
    02:00 +15°C° 0 mm 2 m/s 668 mmHg 31%
    03:00 +15°C° 0 mm 2 m/s 668 mmHg 32%
    04:00 +14°C° 0 mm 2 m/s 668 mmHg 33%
    05:00 +13°C° 0 mm 3 m/s 668 mmHg 34%
    06:00 +13°C° 0 mm 3 m/s 668 mmHg 34%
    07:00 +13°C° 0 mm 3 m/s 669 mmHg 34%
    08:00 +17°C° 0 mm 3 m/s 669 mmHg 29%
    09:00 +19°C° 0 mm 3 m/s 670 mmHg 25%
    10:00 +22°C° 0 mm 3 m/s 671 mmHg 20%
    11:00 +23°C° 0 mm 4 m/s 671 mmHg 18%
    12:00 +25°C° 0 mm 5 m/s 670 mmHg 15%
    13:00 +26°C° 0 mm 5 m/s 670 mmHg 13%
    14:00 +26°C° 0 mm 5 m/s 670 mmHg 12%
    15:00 +26°C° 0 mm 5 m/s 670 mmHg 11%
    16:00 +26°C° 0 mm 5 m/s 669 mmHg 11%
    17:00 +23°C° 0 mm 4 m/s 670 mmHg 11%
    18:00 +21°C° 0 mm 4 m/s 670 mmHg 12%
    19:00 +19°C° 0 mm 4 m/s 670 mmHg 13%
    20:00 +18°C° 0 mm 3 m/s 670 mmHg 13%
    21:00 +17°C° 0 mm 3 m/s 670 mmHg 13%
    22:00 +16°C° 0 mm 3 m/s 670 mmHg 14%
    23:00 +15°C° 0 mm 2 m/s 670 mmHg 15%

    27 Junho, Quarta-feira

    Tempo Temperatura Precipitação Vento Pressão Humidade
    00:00 +14°C° 0 mm 2 m/s 670 mmHg 17%
    01:00 +13°C° 0 mm 2 m/s 670 mmHg 19%
    02:00 +13°C° 0 mm 2 m/s 669 mmHg 21%
    03:00 +12°C° 0 mm 2 m/s 669 mmHg 23%
    04:00 +12°C° 0 mm 2 m/s 669 mmHg 25%
    05:00 +10°C° 0 mm 2 m/s 670 mmHg 26%
    06:00 +10°C° 0 mm 2 m/s 670 mmHg 27%
    07:00 +10°C° 0 mm 2 m/s 670 mmHg 28%
    08:00 +13°C° 0 mm 2 m/s 671 mmHg 24%
    09:00 +16°C° 0 mm 1 m/s 671 mmHg 21%
    10:00 +19°C° 0 mm 1 m/s 672 mmHg 17%
    11:00 +21°C° 0 mm 1 m/s 672 mmHg 15%
    12:00 +22°C° 0 mm 1 m/s 671 mmHg 13%
    13:00 +22°C° 0 mm 0 m/s 671 mmHg 12%
    14:00 +24°C° 0 mm 1 m/s 671 mmHg 11%
    15:00 +24°C° 0 mm 1 m/s 671 mmHg 11%
    16:00 +25°C° 0 mm 1 m/s 671 mmHg 10%
    17:00 +23°C° 0 mm 2 m/s 671 mmHg 12%
    18:00 +20°C° 0 mm 2 m/s 671 mmHg 14%
    19:00 +18°C° 0 mm 3 m/s 671 mmHg 16%
    20:00 +17°C° 0 mm 3 m/s 671 mmHg 17%
    21:00 +16°C° 0 mm 3 m/s 671 mmHg 19%
    22:00 +16°C° 0 mm 3 m/s 671 mmHg 21%
    23:00 +14°C° 0 mm 3 m/s 671 mmHg 22%
    Mostrar mais